Cosmos 1898 Rocket - Orbit

View from above orbital plane
View from above orbital plane
View from above satellite
View from above satellite

Ground track
Ground track

The orbit data is extracted from the following two-line orbital elements,

1 18586U 87098B   13138.82984104  .00000155  00000-0  62144-4 0  7431
2 18586 074.0058 158.6696 0021583 210.8988 203.7653 14.36219227333350
Epoch (UTC): 18 May 2013 19:54:58
Eccentricity: 0.0021583
inclination: 74.0058°
perigee height: 755 km
apogee height: 786 km
right ascension of ascending node: 158.6696°
argument of perigee: 210.8988°
revolutions per day: 14.36219227
mean anomaly at epoch: 203.7653°
orbit number at epoch: 33335

The dashed part of the orbit path shows where the satellite is in the earth's shadow,  

Developed and maintained by Chris Peat, Heavens-Above GmbH. Please read the updated FAQ before sending e-mail. Imprint. DLR